Augusta Bush, GA

7:18 PM EST on February 19, 2018 (GMT -0500)
Augusta Regional At Bush

Weather History for KAGS - October, 2011

Change the Weather History Date:

Sunday, October 30, 2011

  Actual Average Record
Temperature  
Mean Temperature 47 °F 60 °F  
Max Temperature 64 °F 74 °F 90 °F (1984)
Min Temperature 30 °F 46 °F 22 °F (1952)
Degree Days  
Heating Degree Days 18 6  
Month to date heating degree days 128 99  
Since 1 July heating degree days 128 106  
Cooling Degree Days 0 1  
Month to date cooling degree days 22 86  
Year to date cooling degree days 2502 2070  
Moisture  
Dew Point 33 °F    
Average Humidity 62    
Maximum Humidity 96    
Minimum Humidity 27    
Precipitation  
Precipitation 0.00 in 0.08 in 2.60 in (1993)
Month to date precipitation 1.47 3.18  
Year to date precipitation 26.52 37.27  
Sea Level Pressure  
Sea Level Pressure 30.26 in    
Wind  
Wind Speed 2 mph (East)    
Max Wind Speed 14 mph    
Max Gust Speed 18 mph    
Visibility 9 miles    
Events      
T = Trace of Precipitation, MM = Missing Value Source: NWS Daily Summary

Daily Weather History Graph

Daily Weather History Graph

Search for Another Location

Airport or City:

Trip Planner

Search our weather history database for the weather conditions in past years. The results will help you decide how hot, cold, wet, or windy it might be!

Date:

Astronomy

Oct. 30, 2011 Rise Set
Actual Time 7:44 AM EDT 6:38 PM EDT
Civil Twilight 7:18 AM EDT 7:03 PM EDT
Nautical Twilight 6:49 AM EDT 7:32 PM EDT
Astronomical Twilight 6:20 AM EDT 8:01 PM EDT
Moon 11:53 AM EDT (10/30) 10:13 PM EDT (10/30)
Length of Visible Light 11h 44m
Length of Day
10h 53m
Waxing Crescent, 20% of the Moon is Illuminated
Oct 30
Waxing Crescent
Nov 2
First Quarter
Nov 10
Full
Nov 18
Last Quarter
Nov 25
New

Hourly Weather History & Observations

Time (EDT) Temp. Windchill Dew Point Humidity Pressure Visibility Wind Dir Wind Speed Gust Speed Precip Events Conditions
12:53 AM 37.0 °F - 34.0 °F 89% 30.19 in 10.0 mi Calm Calm - N/A   Clear
1:53 AM 37.0 °F - 34.0 °F 89% 30.19 in 10.0 mi Calm Calm - N/A   Clear
2:53 AM 35.1 °F - 33.1 °F 92% 30.20 in 10.0 mi Calm Calm - N/A   Clear
3:53 AM 33.8 °F - 32.0 °F 93% 30.20 in 10.0 mi Calm Calm - N/A   Clear
4:53 AM 33.1 °F - 32.0 °F 96% 30.21 in 10.0 mi Calm Calm - N/A   Clear
5:53 AM 32.0 °F - 30.9 °F 96% 30.23 in 10.0 mi Calm Calm - N/A   Clear
6:53 AM 32.0 °F - 30.0 °F 92% 30.26 in 10.0 mi Calm Calm - N/A   Clear
7:53 AM 30.9 °F - 28.9 °F 92% 30.27 in 10.0 mi Calm Calm - N/A   Clear
8:25 AM 30.2 °F - 30.2 °F 100% 30.28 in 1.8 mi Calm Calm - N/A   Clear
8:53 AM 35.1 °F - 34.0 °F 96% 30.30 in 1.2 mi Calm Calm - N/A   Clear
9:05 AM 39.2 °F 35.0 °F 37.4 °F 93% 30.30 in 8.0 mi North 5.8 mph - N/A   Clear
9:53 AM 46.0 °F - 39.0 °F 76% 30.32 in 8.0 mi Calm Calm - N/A   Clear
10:53 AM 55.0 °F - 37.0 °F 51% 30.32 in 10.0 mi Calm Calm - N/A   Clear
11:53 AM 60.1 °F - 30.9 °F 33% 30.31 in 10.0 mi NE 11.5 mph 17.3 mph N/A   Clear
12:53 PM 61.0 °F - 30.9 °F 32% 30.30 in 10.0 mi ENE 9.2 mph - N/A   Clear
1:53 PM 62.1 °F - 28.9 °F 29% 30.28 in 10.0 mi East 10.4 mph - N/A   Clear
2:53 PM 63.0 °F - 30.0 °F 29% 30.25 in 10.0 mi ESE 6.9 mph 17.3 mph N/A   Clear
3:53 PM 62.1 °F - 28.9 °F 29% 30.24 in 10.0 mi East 3.5 mph - N/A   Clear
4:53 PM 62.6 °F - 30.2 °F 30% 30.24 in 10.0 mi Calm Calm - N/A   Clear
5:53 PM 59.0 °F - 32.0 °F 36% 30.25 in 10.0 mi East 5.8 mph - N/A   Clear
6:53 PM 48.9 °F - 37.0 °F 64% 30.25 in 10.0 mi ESE 4.6 mph - N/A   Clear
7:53 PM 45.0 °F - 37.9 °F 76% 30.27 in 10.0 mi Calm Calm - N/A   Clear
8:53 PM 43.0 °F - 37.0 °F 80% 30.29 in 10.0 mi Calm Calm - N/A   Clear
9:53 PM 39.9 °F - 36.0 °F 86% 30.29 in 10.0 mi Calm Calm - N/A   Clear
10:53 PM 39.0 °F - 36.0 °F 89% 30.29 in 10.0 mi Calm Calm - N/A   Clear
11:53 PM 41.0 °F - 37.0 °F 86% 30.29 in 10.0 mi Calm Calm - N/A   Clear